CZ-6A DEB, 54966

Orbit data source: Space-Track

CZ-6A DEB, 54966 is space debris in SSO originally from a launch on Fri, 11 Nov 2022 UTC launched from the Taiyaun Space Center, China (TSC). Debris objects in space refer to the collection of defunct objects orbiting the Earth. Examples of debris include non-operational satellites, rocket bodies, and fragments generated from explosions, collisions, or faulty payload assembly.

Loading next visibility...
Identifier
54966, 2022-151TF
Orbit
SSO
Country
Flag of CNCN / PRC
Related business
Manufacturer
SAST
Mission
Spacecraft
Bus & Motor
Unknown
Mass
Unknown
Launch date (UTC)
2022-11-11 (3 years ago)
Launch vehicle
Unknown
Launch site
Taiyaun Space Center, China (TSC)
Object type
Payload
Rocket body
Debris
Shape & HBR
Unknown shape, 0.1 m
Radar Cross Section
Small (<0.1 m²)

Expand to show TLE details & history
Last TLE update: 13 hours ago

TLE from 13 hours ago
0 CZ-6A DEB
1 54966U 22151TF  26130.31136912  .00005088  00000-0  54692-3 0  9999
2 54966  98.7253 247.8714 0126934 260.6314  98.0528 14.83301373187007
Epoch: 2026-05-10T07:28Z
TLE epoch observation values (Epoch: 2026-05-10T07:28:22.291Z)
Latitude
0.00001°
Longitude
-92.33775°
Altitude
635.47 km
Speed
7.533 km/s
True Right ascension
16h 31m 29s
True Declination
0° 00' 00"
Sunlit
Object was in full shadow at epoch
Visualization orbit readout
Latitude
Unknown
Longitude
Unknown
Altitude
Unknown
Speed
Unknown
Apparent Right ascension
Unknown
Apparent Declination
Unknown
Sunlit
N/A
Visualization observer readout
Local Sidereal Time
04:34:17
Azimuth
Unknown
Elevation
Unknown
Doppler factor
Unknown
Orbital elements
Apogee altitude
704.777 km
Perigee altitude
527.218 km
Semi-major axis
6,994.134 km
Eccentricity
0.01269
Inclination
98.7253°
RAAN
247.8714°
Arg. of periapsis
260.6314°
True anomaly
99.48967°
Mean anomaly
98.0528°
Eccentric anomaly
98.77157°
Mean motion
3.71058 °/min
Orbital period
97.02 mins
BSTAR
0.00054692
Loading maneuver chart data...
Computing Atmospheric mass density...
Loading historical data...
Loading historical data...
Loading historical data...
Loading historical data...
Loading historical data...
Loading historical data...
Loading historical data...

Documentation

Showing up to 5 results
|